Location: Tel Aviv
(32.0670°N, 34.7670°E)
Time: 14:10:10
(UTC+02:00)

X-37B - Visible Passes

Search period start: 29 November 2022 00:00
Search period end: 09 December 2022 00:00
Orbit: 277 x 277 km, 45.0° (Epoch: 01 November)

Date Brightness Start Highest point End Pass type
(mag) Time Alt. Az. Time Alt. Az. Time Alt. Az.
03 Dec 2.2 17:57:56 10° S 17:58:57 17° S 17:58:57 17° S visible
04 Dec 0.8 17:58:03 10° SW 17:59:58 41° S 17:59:58 41° S visible
05 Dec 0.4 17:58:41 10° WSW 18:00:54 57° WNW 18:00:54 57° WNW visible
06 Dec 1.6 17:59:39 10° W 18:01:46 27° NNW 18:01:46 27° NNW visible
07 Dec 2.4 18:01:01 10° WNW 18:02:34 15° NNW 18:02:34 15° NNW visible
08 Dec 3.0 18:03:17 10° NNW 18:03:18 10° NNW 18:03:18 10° NNW visible
